When you browse on this site, cookies collect data to enhance your experience and personalize the content and advertising you see.
Visit our Privacy Policy to learn more. By continuing to use the site, you agree to this use of cookies and data.
  • en Suisse
  • Liste des pays
  • À 7 jours
  • Température de l'eau
  • Carte satellitaire
  • Carte météo
  • Widgets météo
  • user-avatar
    Se connecter

    Météo par heure à Porto Velho

    Ce jour, 17 Novembre, Samedi

    Heure Température Précipitation Vent Pression Humidité
    00:00 +26°C° 0 mm 0 m/s 749 mmHg 76%
    01:00 +25°C° 0 mm 0 m/s 749 mmHg 78%
    02:00 +25°C° 0 mm 0 m/s 749 mmHg 79%
    03:00 +25°C° 0 mm 0 m/s 749 mmHg 81%
    04:00 +24°C° 0 mm 0 m/s 749 mmHg 83%
    05:00 +24°C° 0 mm 0 m/s 749 mmHg 84%
    06:00 +26°C° 0 mm 0 m/s 750 mmHg 77%
    07:00 +28°C° 0 mm 0 m/s 750 mmHg 70%
    08:00 +30°C° 0 mm 0 m/s 751 mmHg 63%
    09:00 +34°C° 0 mm 1 m/s 750 mmHg 55%
    10:00 +36°C° 0 mm 1 m/s 750 mmHg 47%
    11:00 +39°C° 0 mm 1 m/s 750 mmHg 39%
    12:00 +39°C° 0 mm 1 m/s 749 mmHg 39%
    13:00 +39°C° 0 mm 1 m/s 748 mmHg 39%
    14:00 +39°C° 0 mm 1 m/s 747 mmHg 39%
    15:00 +37°C° 0 mm 1 m/s 747 mmHg 42%
    16:00 +36°C° 0 mm 1 m/s 746 mmHg 45%
    17:00 +33°C° 0 mm 0 m/s 746 mmHg 49%
    18:00 +32°C° 0 mm 0 m/s 747 mmHg 53%
    19:00 +30°C° 0 mm 0 m/s 747 mmHg 57%
    20:00 +28°C° 0 mm 0 m/s 747 mmHg 61%
    21:00 +28°C° 0 mm 0 m/s 748 mmHg 63%
    22:00 +27°C° 0 mm 0 m/s 748 mmHg 64%
    23:00 +27°C° 0 mm 0 m/s 749 mmHg 66%

    Demain, 18 Novembre, Dimanche

    Heure Température Précipitation Vent Pression Humidité
    00:00 +27°C° 0 mm 0 m/s 748 mmHg 68%
    01:00 +26°C° 0 mm 0 m/s 748 mmHg 70%
    02:00 +26°C° 0 mm 0 m/s 748 mmHg 72%
    03:00 +25°C° 0.1 mm 0 m/s 748 mmHg 75%
    04:00 +25°C° 0.1 mm 0 m/s 748 mmHg 77%
    05:00 +25°C° 0.1 mm 0 m/s 748 mmHg 80%
    06:00 +26°C° 0.1 mm 0 m/s 748 mmHg 74%
    07:00 +28°C° 0.1 mm 0 m/s 749 mmHg 69%
    08:00 +30°C° 0.1 mm 0 m/s 750 mmHg 64%
    09:00 +33°C° 0 mm 0 m/s 750 mmHg 55%
    10:00 +37°C° 0 mm 1 m/s 749 mmHg 46%
    11:00 +41°C° 0 mm 1 m/s 749 mmHg 37%
    12:00 +40°C° 0 mm 1 m/s 748 mmHg 38%
    13:00 +40°C° 0 mm 1 m/s 747 mmHg 38%
    14:00 +39°C° 0 mm 1 m/s 747 mmHg 39%
    15:00 +39°C° 0 mm 1 m/s 747 mmHg 42%
    16:00 +37°C° 0 mm 1 m/s 746 mmHg 44%
    17:00 +37°C° 0 mm 1 m/s 746 mmHg 46%
    18:00 +33°C° 0 mm 0 m/s 747 mmHg 52%
    19:00 +31°C° 0 mm 0 m/s 747 mmHg 57%
    20:00 +29°C° 0 mm 0 m/s 748 mmHg 62%
    21:00 +28°C° 0.2 mm 0 m/s 748 mmHg 67%
    22:00 +28°C° 0.2 mm 0 m/s 748 mmHg 72%
    23:00 +27°C° 0.2 mm 0 m/s 748 mmHg 76%

    Après-demain, 19 Novembre, Lundi

    Heure Température Précipitation Vent Pression Humidité
    00:00 +26°C° 0.1 mm 0 m/s 748 mmHg 79%
    01:00 +28°C° 0.1 mm 1 m/s 748 mmHg 81%
    02:00 +27°C° 0.1 mm 1 m/s 747 mmHg 84%
    03:00 +27°C° 1.2 mm 1 m/s 748 mmHg 88%
    04:00 +26°C° 1.2 mm 1 m/s 748 mmHg 92%
    05:00 +26°C° 1.2 mm 1 m/s 748 mmHg 96%
    06:00 +27°C° 0 mm 1 m/s 749 mmHg 93%
    07:00 +28°C° 0 mm 1 m/s 749 mmHg 90%
    08:00 +29°C° 0 mm 1 m/s 750 mmHg 87%
    09:00 +31°C° 0.9 mm 1 m/s 750 mmHg 78%
    10:00 +33°C° 0.9 mm 1 m/s 750 mmHg 70%
    11:00 +35°C° 0.9 mm 1 m/s 749 mmHg 61%
    12:00 +36°C° 0.6 mm 1 m/s 749 mmHg 56%
    13:00 +37°C° 0.6 mm 1 m/s 748 mmHg 51%
    14:00 +36°C° 0.6 mm 0 m/s 747 mmHg 46%
    15:00 +36°C° 0.3 mm 1 m/s 747 mmHg 54%
    16:00 +34°C° 0.3 mm 1 m/s 746 mmHg 61%
    17:00 +32°C° 0.3 mm 1 m/s 746 mmHg 68%
    18:00 +30°C° 11.1 mm 1 m/s 746 mmHg 77%
    19:00 +29°C° 11.1 mm 1 m/s 747 mmHg 87%
    20:00 +27°C° 11.1 mm 2 m/s 747 mmHg 96%
    21:00 +27°C° 10.6 mm 2 m/s 748 mmHg 97%
    22:00 +27°C° 10.6 mm 1 m/s 749 mmHg 97%
    23:00 +26°C° 10.6 mm 1 m/s 750 mmHg 98%

    20 Novembre, Mardi

    Heure Température Précipitation Vent Pression Humidité
    00:00 +26°C° 1.2 mm 1 m/s 749 mmHg 98%
    01:00 +26°C° 1.2 mm 1 m/s 749 mmHg 98%
    02:00 +26°C° 1.2 mm 1 m/s 748 mmHg 98%
    03:00 +26°C° 0.5 mm 1 m/s 748 mmHg 98%
    04:00 +24°C° 0.5 mm 0 m/s 748 mmHg 98%
    05:00 +23°C° 0.5 mm 0 m/s 748 mmHg 98%
    06:00 +24°C° 0.6 mm 0 m/s 749 mmHg 97%
    07:00 +27°C° 0.6 mm 1 m/s 750 mmHg 96%
    08:00 +27°C° 0.6 mm 1 m/s 751 mmHg 94%
    09:00 +29°C° 0.7 mm 1 m/s 751 mmHg 88%
    10:00 +30°C° 0.7 mm 1 m/s 751 mmHg 81%
    11:00 +31°C° 0.7 mm 1 m/s 751 mmHg 75%
    12:00 +33°C° 0.6 mm 1 m/s 750 mmHg 69%
    13:00 +35°C° 0.6 mm 1 m/s 749 mmHg 63%
    14:00 +36°C° 0.6 mm 1 m/s 748 mmHg 58%
    15:00 +34°C° 0.9 mm 1 m/s 748 mmHg 68%
    16:00 +32°C° 0.9 mm 1 m/s 747 mmHg 77%
    17:00 +29°C° 0.9 mm 2 m/s 747 mmHg 87%
    18:00 +28°C° 0.1 mm 1 m/s 748 mmHg 90%
    19:00 +28°C° 0.1 mm 1 m/s 748 mmHg 93%
    20:00 +27°C° 0.1 mm 1 m/s 749 mmHg 95%
    21:00 +27°C° 0 mm 1 m/s 749 mmHg 95%
    22:00 +26°C° 0 mm 1 m/s 749 mmHg 95%
    23:00 +26°C° 0 mm 1 m/s 750 mmHg 96%

    21 Novembre, Mercredi

    Heure Température Précipitation Vent Pression Humidité
    00:00 +26°C° 0 mm 1 m/s 749 mmHg 96%
    01:00 +24°C° 0 mm 0 m/s 749 mmHg 96%
    02:00 +23°C° 0 mm 0 m/s 749 mmHg 97%
    03:00 +23°C° 0.2 mm 0 m/s 749 mmHg 97%
    04:00 +23°C° 0.2 mm 0 m/s 749 mmHg 97%
    05:00 +23°C° 0.2 mm 0 m/s 749 mmHg 97%
    06:00 +24°C° 0.5 mm 0 m/s 750 mmHg 94%
    07:00 +25°C° 0.5 mm 0 m/s 750 mmHg 91%
    08:00 +26°C° 0.5 mm 0 m/s 751 mmHg 87%
    09:00 +29°C° 0 mm 0 m/s 751 mmHg 74%
    10:00 +31°C° 0 mm 0 m/s 751 mmHg 61%
    11:00 +36°C° 0 mm 1 m/s 751 mmHg 48%
    12:00 +37°C° 0 mm 1 m/s 749 mmHg 46%
    13:00 +37°C° 0 mm 1 m/s 748 mmHg 44%
    14:00 +39°C° 0 mm 1 m/s 747 mmHg 42%
    15:00 +37°C° 0 mm 1 m/s 747 mmHg 47%
    16:00 +34°C° 0 mm 0 m/s 747 mmHg 52%
    17:00 +32°C° 0 mm 0 m/s 747 mmHg 57%
    18:00 +31°C° 0 mm 0 m/s 747 mmHg 63%
    19:00 +29°C° 0 mm 0 m/s 748 mmHg 69%
    20:00 +28°C° 0 mm 0 m/s 748 mmHg 74%
    21:00 +27°C° 0.3 mm 0 m/s 748 mmHg 79%
    22:00 +26°C° 0.3 mm 0 m/s 748 mmHg 83%
    23:00 +25°C° 0.3 mm 0 m/s 749 mmHg 88%

    22 Novembre, Jeudi

    Heure Température Précipitation Vent Pression Humidité
    00:00 +25°C° 0.1 mm 0 m/s 748 mmHg 89%
    01:00 +25°C° 0.1 mm 0 m/s 748 mmHg 90%
    02:00 +25°C° 0.1 mm 0 m/s 748 mmHg 92%
    03:00 +24°C° 0 mm 0 m/s 748 mmHg 92%
    04:00 +24°C° 0 mm 0 m/s 748 mmHg 93%
    05:00 +24°C° 0 mm 0 m/s 748 mmHg 93%
    06:00 +25°C° 0.4 mm 0 m/s 749 mmHg 90%
    07:00 +26°C° 0.4 mm 0 m/s 749 mmHg 86%
    08:00 +29°C° 0.4 mm 1 m/s 750 mmHg 82%
    09:00 +30°C° 1.7 mm 1 m/s 750 mmHg 82%
    10:00 +31°C° 1.7 mm 1 m/s 749 mmHg 81%
    11:00 +31°C° 1.7 mm 1 m/s 749 mmHg 81%
    12:00 +32°C° 1 mm 1 m/s 748 mmHg 75%
    13:00 +33°C° 1 mm 1 m/s 748 mmHg 69%
    14:00 +34°C° 1 mm 1 m/s 747 mmHg 63%
    15:00 +33°C° 1.4 mm 1 m/s 747 mmHg 71%
    16:00 +31°C° 1.4 mm 1 m/s 746 mmHg 79%
    17:00 +30°C° 1.4 mm 1 m/s 746 mmHg 88%
    18:00 +29°C° 0.4 mm 1 m/s 746 mmHg 91%
    19:00 +28°C° 0.4 mm 1 m/s 747 mmHg 94%
    20:00 +27°C° 0.4 mm 1 m/s 748 mmHg 97%
    21:00 +27°C° 0 mm 1 m/s 748 mmHg 97%
    22:00 +27°C° 0 mm 1 m/s 748 mmHg 97%
    23:00 +26°C° 0 mm 1 m/s 748 mmHg 97%
    Voir plus